Weather observations for the past three days for
Pensacola - Pensacola International Airport
Imperial (Metric)
Date Time (cdt) Wind (mph) Vis. (mi.) Weather Sky Cond. Temperature (ºF) Relative Humidity Wind Chill (°F) Heat Index (°F) Pressure Precipitation (in)
Air Dwpt 6 hour altimeter (in) sea level (mb) 1 hr 3 hr 6 hr
Max. Min.
12 12:53 S 7 10.00 Mostly Cloudy SCT046 BKN090 87.1 70 91 78.1 57% 92 30.09 1019.0
12 11:53 Calm 10.00 Mostly Cloudy SCT045 BKN060 BKN080 89.1 66.9 48% 92 30.09 1019.1
12 10:53 N 6 10.00 Fair CLR 90 69.1 50% 95 30.09 1019.0
12 09:53 NW 5 10.00 Fair CLR 87.1 69.1 55% 91 30.08 1018.8
12 08:53 NW 9 10.00 Fair CLR 84.9 71.1 63% 90 30.08 1018.7
12 07:53 NW 9 10.00 Fair CLR 81 72 74% 85 30.07 1018.3
12 06:53 NW 6 10.00 Fair CLR 78.1 72 79 75.9 82% 80 30.05 1017.7
12 05:53 NW 5 10.00 A Few Clouds FEW110 75.9 71.1 85% 76 30.04 1017.3
12 04:53 NW 6 10.00 Mostly Cloudy BKN110 77 71.1 82% 79 30.03 1016.8
12 03:53 NW 5 10.00 Fair CLR 75.9 71.1 85% 76 30.01 1016.4
12 02:53 NW 7 10.00 Fair CLR 77 71.1 82% 79 30 1016.1
12 01:53 NW 6 10.00 Fair CLR 78.1 71.1 79% 80 30 1015.9
12 00:53 NW 6 10.00 Fair CLR 79 69.1 84.9 79 72% 82 30.01 1016.3
11 23:53 W 6 10.00 Fair CLR 80.1 68 67% 83 30.03 1016.8
11 22:53 W 7 10.00 Fair CLR 81 66.9 62% 83 30.02 1016.7
11 21:53 W 7 10.00 Fair CLR 82 66.9 60% 85 30.02 1016.5
11 20:53 W 7 10.00 Fair CLR 82.9 66 57% 85 30.01 1016.2
11 19:53 SW 7 10.00 Fair CLR 82.9 64.9 55% 85 30 1016.0
11 18:53 SW 12 10.00 Mostly Cloudy BKN110 84.9 66 90 84.9 53% 87 30 1015.9
11 17:53 SW 10 10.00 Fair CLR 87.1 66 50% 89 29.99 1015.4
11 16:53 S 10 10.00 Overcast SCT045 BKN085 OVC110 88 66.9 50% 91 29.99 1015.5
11 15:53 S 13 10.00 Mostly Cloudy SCT046 BKN070 BKN085 88 68 52% 92 29.98 1015.4
11 14:53 S 10 10.00 Mostly Cloudy BKN049 BKN060 87.1 68 53% 91 29.99 1015.8
11 13:53 Calm 10.00 Mostly Cloudy BKN049 BKN060 86 66 51% 88 30.01 1016.2
11 12:53 NW 6 10.00 Overcast BKN049 OVC070 86 66 89.1 75 51% 88 30.02 1016.7
11 11:53 NE 5 10.00 Fair CLR 89.1 64 43% 90 30.04 1017.3
11 10:53 Calm 10.00 Fair CLR 87.1 68 53% 91 30.04 1017.5
11 09:53 Vrbl 7 10.00 A Few Clouds FEW028 86 70 59% 91 30.04 1017.4
11 08:53 N 8 10.00 Fair CLR 82.9 72 70% 88 30.04 1017.2
11 07:53 N 7 10.00 Fair CLR 79 73 82% 82 30.03 1016.9
11 06:53 N 6 10.00 Fair CLR 75 72 75.9 73 90% 74 30.02 1016.6
11 05:53 NW 6 10.00 Fair CLR 73.9 71.1 91% 30.01 1016.2
11 04:53 N 6 10.00 Fair CLR 73.9 71.1 91% 30 1016.0
11 03:53 NW 6 10.00 A Few Clouds FEW002 73.9 70 88% 30 1015.8
11 02:53 NW 6 10.00 Fair CLR 75 73 94% 73 29.99 1015.7
11 01:53 NW 6 10.00 Fair CLR 75 72 90% 74 29.98 1015.3
11 00:53 NW 5 10.00 Fair CLR 75 71.1 84 75 88% 75 29.99 1015.5
10 23:53 NW 5 10.00 Fair CLR 75 71.1 88% 75 29.99 1015.6
10 22:53 NW 5 10.00 Fair CLR 77 70 79% 79 29.99 1015.7
10 21:53 NW 5 10.00 Fair CLR 77 70 79% 79 29.99 1015.6
10 20:53 NW 6 10.00 Fair CLR 79 69.1 72% 82 29.99 1015.6
10 19:53 NW 6 10.00 Fair CLR 81 69.1 67% 84 29.98 1015.4
10 18:53 NW 8 10.00 Fair CLR 84 68 89.1 80.1 59% 87 29.98 1015.2
10 17:53 Vrbl 7 10.00 Partly Cloudy SCT035 87.1 70 57% 92 29.97 1015.1
10 16:53 W 3 10.00 A Few Clouds FEW032 FEW045 87.1 70 57% 92 29.97 1015.0
10 15:53 NW 7 10.00 Partly Cloudy FEW043 SCT050 84.9 70 61% 89 29.98 1015.2
10 14:53 Calm 10.00 Partly Cloudy SCT025 SCT047 84.9 72 65% 91 29.99 1015.6
10 13:53 NE 5 10.00 Fair CLR 82.9 72 70% 88 30 1015.9
10 12:53 NE 5 10.00 Mostly Cloudy SCT075 BKN180 80.1 72 81 75 76% 84 30.01 1016.3 0.13
10 11:53 Calm 10.00 Fair CLR 78.1 71.1 79% 80 30.03 1016.9 0.01
10 10:53 N 7 5.00 Rain Fog/Mist SCT080 OVC100 75.9 72 88% 76 30.02 1016.6 0.12
10 09:53 N 8 10.00 Overcast FEW010 OVC060 79 73 82% 82 30.02 1016.6
10 08:53 NW 5 10.00 Overcast BKN033 BKN060 OVC075 79 72 79% 82 30.01 1016.4
10 07:53 NW 9 10.00 Mostly Cloudy FEW017 BKN060 78.1 72 82% 80 30 1015.9
10 06:53 W 6 10.00 Overcast FEW038 SCT047 OVC060 80.1 73 81 79 79% 84 29.96 1014.7
10 05:53 NW 6 10.00 Partly Cloudy FEW035 SCT055 79 73.9 85% 83 29.96 1014.4
10 04:53 W 8 10.00 A Few Clouds FEW037 80.1 73.9 82% 85 29.95 1014.2
10 03:53 W 8 10.00 Fair CLR 80.1 73 79% 84 29.95 1014.1
10 02:53 SW 7 10.00 Partly Cloudy SCT027 81 73 77% 86 29.95 1014.1
10 01:53 SW 8 10.00 Fair CLR 81 73 77% 86 29.96 1014.5
10 00:53 SW 7 10.00 Fair CLR 81 73.9 84.9 81 79% 86 29.97 1014.9
09 23:53 SW 10 10.00 Fair CLR 82 75 79% 89 29.97 1014.8
09 22:53 SW 8 10.00 Fair CLR 82 75 79% 89 29.97 1014.9
09 21:53 SW 9 10.00 Fair CLR 82 73.9 77% 88 29.97 1015.0
09 20:53 SW 10 10.00 A Few Clouds FEW022 FEW100 82.9 73.9 74% 89 29.97 1014.9
09 19:53 SW 15 10.00 Fair CLR 84 73.9 72% 91 29.96 1014.4
09 18:53 SW 15 G 22 10.00 Fair CLR 84.9 73 90 82.9 68% 92 29.94 1014.1 0.03
09 17:53 W 9 10.00 Mostly Cloudy SCT033 BKN048 BKN075 84 75 74% 92 29.95 1014.1
09 16:53 SW 20 G 25 10.00 A Few Clouds FEW095 88 71.1 57% 94 29.94 1013.8 0.02
09 15:53 SW 17 G 25 10.00 Partly Cloudy FEW030 FEW035 SCT090 89.1 73 59% 97 29.94 1013.8 0.01
09 14:53 SW 21 G 31 10.00 Fair and Breezy CLR 89.1 73 59% 97 29.95 1014.2 0.01
09 13:53 S 15 G 25 10.00 Light Rain SCT034 BKN044 BKN070 89.1 73.9 61% 98 29.95 1014.3
Date Time (cdt) Wind (mph) Vis. (mi.) Weather Sky Cond. Air Dwpt Max. Min. Relative Humidity Wind Chill (°F) Heat Index (°F) altimeter (in) sea level (mb) 1 hr 3 hr 6 hr
6 hour
Temperature (ºF) Pressure Precipitation (in)